Regional Weather Roundup
Issued by NWS State College, PA

Home | Current Version | Previous Version | Graphics & Text | Print | Product List | Glossary Off
Versions: 1 2 3 4 5 6 7 8 9 10 11 12 13 14 15 16 17 18 19 20 21 22 23 24 25 26 27 28 29 30 31 32 33 34 35 36 37 38 39 40 41 42 43 44 45 46 47 48 49 50

000
ASUS41 KCTP 022303
RWRCTP

REGIONAL WEATHER ROUNDUP
NATIONAL WEATHER SERVICE STATE COLLEGE PA
700 PM EDT SUN AUG 02 2015

Note: "fair" indicates few or no clouds below 12,000 feet with no
significant weather and/or obstructions to visibility.

* = STATION THAT DOES NOT REPORT PRECIPITATION /E.G. RAIN...SNOW...ETC/
    THUNDER OR FOG.

PAZ002>004-007>009-013>016-020>023-029>032-030000-
WESTERN PENNSYLVANIA

CITY           SKY/WX    TMP DP  RH WIND       PRES   REMARKS
ERIE           MOSUNNY   86  61  42 S17G23    29.74F
MEADVILLE      SUNNY     83  61  47 SW13G23   29.84F
FRANKLIN*      SUNNY     81  61  50 SW14G20   29.88F
NEW CASTLE     MOCLDY    85  65  51 SW7       29.87F
BEAVER COUNTY  NOT AVBL
BUTLER*        SUNNY     82  61  47 W12G18    29.91F
PITTSBURGH INT MOSUNNY   84  60  44 SW13      29.90F
PITTSBURGH     PTSUNNY   82  57  42 S16G23    29.91S
INDIANA*       SUNNY     82  64  54 SW9G15    29.94F
LATROBE        MOSUNNY   82  63  51 SW12      29.92S
WASHINGTON CO* NOT AVBL
$$

PAZ004>006-010>012-017>019-024>028-033>037-041-042-045-046-049>053-030000-
CENTRAL PENNSYLVANIA

CITY           SKY/WX    TMP DP  RH WIND       PRES   REMARKS
BRADFORD       SUNNY     78  55  44 SW7       29.90F
DUBOIS         MOSUNNY   81  57  43 SW10      29.90F
CLEARFIELD     SUNNY     81  59  47 SW8       29.91F
JOHNSTOWN      SUNNY     77  59  53 W13       29.97S
ALTOONA        MOSUNNY   80  61  52 W8        29.94R
STATE COLLEGE  SUNNY     79  63  57 SW6       29.90F
WILLIAMSPORT   SUNNY     83  61  47 SW5       29.85S
SELINSGROVE    SUNNY     82  61  48 S7        29.88R
FT INDIANTOWN  NOT AVBL
CAPITAL CITY   SUNNY     84  58  40 S8        29.89R
HARRISBURG     MOSUNNY   85  60  42 VRB5      29.88S
YORK           SUNNY     81  60  48 SW6       29.90S
$$

PAZ038>040-043-044-047-048-054-055-060>062-067>071-030000-
EASTERN PENNSYLVANIA

CITY           SKY/WX    TMP DP  RH WIND       PRES   REMARKS
SCRANTON       MOSUNNY   82  57  42 SW9       29.89R
MOUNT POCONO   PTSUNNY   75  56  51 SW10      29.95S
ALLENTOWN      SUNNY     84  57  39 S12G18    29.88F
QUAKERTOWN*    CLEAR     82  59  44 SW7       29.90F
READING        SUNNY     83  58  42 S9        29.88S
LANCASTER      SUNNY     82  59  45 SW13      29.89F
COATESVILLE    CLEAR     81  59  47 SW6       29.92S
POTTSTOWN      SUNNY     83  59  44 S7        29.91F
BLUE BELL      SUNNY     84  57  39 SW3       29.88F
DOYLESTOWN     SUNNY     82  53  36 W6        29.88F
WILLOW GROVE   NOT AVBL
NORTH PHILA    SUNNY     87  48  25 W8G17     29.89F
PHILADELPHIA   PTSUNNY   88  52  29 SW10      29.88F
$$



USA.gov is the U.S. government's official web portal to all federal, state and local government web resources and services.